ニート-パンスターズ彗星

488P/NEAT-PanSTARRS (2024)

English version
Home page
Updated on November 27, 2024

---------------------------------------------------------------------

・ プロフィール

符号 488P/2024 N6
再発見日 2024年7月9日
再発見光度 20.6等
再発見者 Pan-STARRS 2 telescope (Haleakala)

・ 写真集

・ 軌道要素

Epoch 2024 Oct. 17.0 TT = JDT 2460600.5
T 2024 May 19.18351 TT                                  Rudenko
q   1.6778854            (2000.0)            P               Q
n   0.13666689     Peri.    1.46520     +0.82418838     +0.55438678
a   3.7327351      Node   324.07087     -0.52156813     +0.66353221
e   0.5504944      Incl.   11.36428     -0.22063589     +0.50237467
P   7.21
From 93 observations 2002 July 6-2024 Sept. 30, mean residual 0".4.

・ 光度変化

        m1 = 16.5 + 5 logΔ + 10.0 log r

---------------------------------------------------------------------

軌道要素はM.P.E.C. 2024-U109に掲載されたものです。
光度グラフはComet for Windowsで作成したものです。

---------------------------------------------------------------------

Copyright(C) Seiichi Yoshida (comet@aerith.net). All rights reserved.